Regional Weather Roundup
Issued by NWS Grand Forks, ND

Home | Current Version | Previous Version | Text Only | Print | Product List | Glossary On
Versions: 1 2 3 4 5 6 7 8 9 10 11 12 13 14 15 16 17 18 19 20 21 22 23 24 25 26 27 28 29 30 31 32 33 34 35 36 37 38 39 40 41 42 43 44 45 46 47 48 49 50
000
ASUS43 KFGF 280810
RWRFGF
PRAIRIE TO PINES  WEATHER ROUNDUP
NATIONAL WEATHER SERVICE EASTERN NORTH DAKOTA/GRAND FORKS ND
300 AM CDT FRI AUG 28 2015

 **SATELLITE DATA USED TO AUGMENT SKY COVER AT AUTOMATED STATIONS**
 *****  WEATHER ACROSS EASTERN NORTH DAKOTA  *****

CITY           SKY/WX    TMP DP  RH WIND       PRES   REMARKS
GRAND FORKS    CLEAR     64  63  96 S8        29.84F
GRAND FRKS AFB CLEAR     65  64  97 SW8       29.85F
GRAND FRKS NWS   N/A     64 N/A N/A S7          N/A
DEVILS LAKE    CLEAR     70  57  64 SW16      29.83F
FARGO          CLEAR     68  64  87 S9        29.89R
WAHPETON ARPT  SUNNY     63  59  88 S5        29.92F
$$

 ***** WEATHER ACROSS CENTRAL AND WESTERN NORTH DAKOTA  *****

CITY           SKY/WX    TMP DP  RH WIND       PRES   REMARKS
BISMARCK       CLEAR     66  61  84 SW5       29.91F
MINOT          CLEAR     70  59  68 SW14      29.81F
JAMESTOWN      PTCLDY    61  59  93 CALM      29.90S
MINOT AFB      CLEAR     68  65  89 SW13      29.79F
GARRISON         N/A     65  56  72 SW7       29.87S
WILLISTON      CLEAR     65  62  90 S3        29.85S
DICKINSON      MOCLDY    63  56  78 S12       29.90S
HETTINGER      MOCLDY    60  56  86 S3        29.96S
$$

 *****  OTHER AIRPORT OBSERVATIONS IN OUR AREA  *****

CITY           SKY/WX    TMP DP  RH WIND       PRES   REMARKS
WALHALLA       FAIR      63  63 100 MISG      29.82R
GRAFTON AIRPOR FAIR      63  63 100 S8        29.84F
VALLEY CITY AR FAIR      64  64 100 CALM      29.91R FOG
CANDO          NOT AVBL
CAVALIER APRT  FAIR      63  63 100 S6        29.82S
GWINNER          N/A     63  63 100 CALM      29.92S
SHEYENNE NWR     N/A     61  61  99 CALM      29.95
ROLLA          CLOUDY    66  64  94 SW14      29.83S
 ***** THE ABOVE OBSERVATIONS ARE NON NWS ARE NOT QUALITY
       CONTROLLED AND MAY MIS-REPORT RAIN FOR SNOW...
$$

  *****  WEATHER ACROSS NORTHERN MINNESOTA  *****

CITY           SKY/WX    TMP DP  RH WIND       PRES   REMARKS
FLAG ISLAND    MOCLDY    64  63  94 S5        29.85F FOG
WARROAD        CLEAR     61  57  88 CALM      29.87F
ROSEAU         CLEAR     61  54  77 S3        29.86F HAZE
HALLOCK        CLEAR     63  61  94 S8        29.83F
THF RVR FALLS  CLEAR    N/A N/A N/A S7        29.88S
BAUDETTE       FOG       60  58  92 CALM      29.88S VSB 3/4
WASKISH        PTCLDY    64  63  94 S6        29.90S
CROOKSTON      CLEAR     64  64 100 S8        29.88S
STEPHEN NDAWN    N/A     64  64 100 S8          N/A
GREENBUSH NDAW   N/A     63  63 100 S5          N/A
$$
  *****  WEATHER ACROSS CENTRAL AND WEST MINNESOTA  *****

CITY           SKY/WX    TMP DP  RH WIND       PRES   REMARKS
FOSSTON        CLEAR     59  57  94 S5        29.91S
BEMIDJI        CLEAR     62  62  99 S6        29.92S
PARK RAPIDS    CLOUDY    65  63  93 S7        29.95R FOG
ELBOW LAKE     FOG       63  63 100 SE7       29.94R VSB 1/2
WADENA         FOG       63  63 100 S5        29.94F VSB 1/2
DETROIT LAKES  PTCLDY    64  63  94 S7        29.94R
MOORHEAD       CLEAR     64  63  94 S8        29.91R
FERGUS FALLS   CLEAR     63  63 100 S6        29.93F
MORRIS MN      CLEAR     61  61 100 SE7       29.94S FOG
STAPLES        CLOUDY    63  63 100 S6        29.96S FOG
$$
  *****  WEATHER ELSEWHERE ACROSS MINNESOTA  *****

CITY           SKY/WX    TMP DP  RH WIND       PRES   REMARKS
DULUTH         MOCLDY    59  56  89 SW5       29.98S
INTRNTL FALLS  CLOUDY    62  60  93 VRB3      29.90F
ELY            CLEAR     57  55  94 CALM      29.96S
CLOQUET        MOCLDY    59  55  88 CALM      29.98S
WHEATON        CLEAR     61  61 100 S8        29.95R
BRAINERD       CLOUDY    63  60  90 S8        29.97F
HIBBING        FOG       51  51 100 CALM      29.97R VSB 1/2
ALEXANDRIA     PTCLDY    62  62 100 S8        29.97S
SAINT CLOUD    PTCLDY    60  59  96 S6        29.97F
MINNEAPOLIS    CLOUDY    66  60  81 S5        30.00F
$$

  *****  WEATHER ACROSS SOUTH DAKOTA  *****

CITY           SKY/WX    TMP DP  RH WIND       PRES   REMARKS
SIOUX FALLS    CLOUDY    66  64  93 SE12      29.92F
BROOKINGS      CLOUDY    64  61  88 SE8       29.95F
WATERTOWN      CLOUDY    66  63  90 S10       29.94S
HURON          CLOUDY    67  64  90 SE6       29.91S
SISSETON         N/A     61  61 100 SE7       29.92S
ABERDEEN       FOG       61  60  97 CALM      29.93S VSB 1/4
MITCHELL       CLOUDY    67  66  97 E3        29.91S
PIERRE         CLOUDY    68  67  96 N6        29.91S FOG
MOBRIDGE       PTCLDY    62  62 100 E5        29.91F
RAPID CITY     CLEAR     58  56  93 CALM      29.98F
$$

  *****  SOME WEATHER IN NEARBY STATES *****

CITY           SKY/WX    TMP DP  RH WIND       PRES   REMARKS
GLASGOW MT     CLEAR     66  53  63 NW5       29.87S
GREAT FALLS MT CLOUDY    64  37  36 S12       30.03R HAZE
CHEYENNE WY    CLOUDY    58  54  86 CALM      30.25S
SCOTTSBLUFF NE PTCLDY    57  54  89 W7        30.07R
OMAHA NE       TSTM      68  67  96 SE10      29.93R FOG
DES MOINES IA  CLOUDY    66  59  78 SE7       30.02S
DAVENPORT IA   CLOUDY    63  58  83 SE6       30.09F
CHICAGO IL     MOCLDY    59  56  89 SE3       30.12S
EAU CLAIRE WI  MOCLDY    60  57  89 S5        30.04R
LA CROSSE WI   CLOUDY    65  60  84 S6        30.06R
$$

  *****  SOME NATIONAL WEATHER *****

CITY           SKY/WX    TMP DP  RH WIND       PRES   REMARKS
LA GUARDIA NY  PTCLDY    68  55  63 W7        30.12S
RALEIGH NC     PTCLDY    62  60  93 CALM      30.13R
ATLANTA GA     CLEAR     71  65  81 E8        30.06R
NEW ORLEANS LA CLEAR     73  61  65 CALM      29.96F
OKLAHOMA CITY  CLOUDY    75  63  66 S10       29.98S
ALBUQUERQUE NM MOCLDY    69  54  58 SE8       30.21R
SALT LAKE CITY CLEAR     71  43  36 SE8       30.17R
LOS ANGELES CA CLEAR     75  66  73 VRB3      29.91S
BOISE ID       PTCLDY    74  36  25 SE6       30.02R
SEATTLE WA     CLOUDY    69  47  45 S6        29.97S
$$

*** WEATHER ACROSS MANITOBA...SASKATCHEWAN AND ONTARIO ***
                ***ONTARIO***

CITY           SKY/WX    TMP DP  RH WIND       PRES   REMARKS
GERALDTON      MOCLDY    50  46  87 SW3       29.93F
THUNDER BAY    CLEAR     46  45  93 W2        29.96F
SIOUX LOOKOUT  MOCLDY    57  55  94 S7        29.88F
TORONTO        PTCLDY    55  52  88 N3        30.16S
BIG TROUT LK   MOCLDY    50  50 100 SE3       29.85S FOG
PICKLE LAKE    NOT AVBL
DRYDEN         CLEAR     59  57  94 S8        29.88S
KENORA         MOCLDY    61  59  94 S7        29.86F
$$
                *** MANITOBA***

CITY           SKY/WX    TMP DP  RH WIND       PRES   REMARKS
BRANDON        TSTM      61  57  88 E9        29.83F
DAUPHIN        MOCLDY    61  59  94 W6        29.73F
ISLAND LAKE    PTCLDY    57  55  94 SE7       29.81F
PILOT MOUND      N/A    N/A N/A N/A SE2         N/A
THE PAS        MOCLDY    57  55  94 CALM      29.74F
THOMPSON       MOCLDY    43  41  93 CALM      29.77F
WINNIPEG       CLOUDY    66  63  88 S10       29.82R
LYNN LAKE      CLEAR     52  50  93 MISG      29.73S
CHURCHILL      PTCLDY    48  48 100 NW5       29.75S
$$
                ***SASKATCHEWAN***

CITY           SKY/WX    TMP DP  RH WIND       PRES   REMARKS
ESTEVAN        MOCLDY    64  61  88 SW9       29.82F
KINDERSLEY     MOCLDY    57  55  94 VRB2      29.83S
LLOYDMINSTER   MOCLDY    64  55  72 SW9       29.79F
PRINCE ALBERT  PTCLDY    52  50  93 SW2       29.78S FOG
REGINA         NOT AVBL
YORKTON        CLEAR     59  57  94 SW8       29.77R
N. BATTLEFORD  CLOUDY    57  55  94 W5        29.84R
LA RONGE       PTCLDY    57  55  94 SE8       29.73F
SASKATOON      PTCLDY    52  52 100 S2        29.82S
SWIFT CURRENT  CLEAR     59  52  77 SW12      29.85S HAZE
$$
NOTE: THESE ARE AUTOMATED STATIONS WITH LIMITED QUALITY CONTROL
      "FAIR" INDICATES FEW OR NO CLOUDS BELOW 12,000 FEET WITH NO
      SIGNIFICANT WEATHER AND/OR OBSTRUCTIONS TO VISIBILITY.
      SKY/WX - SKY CONDITION AND SIGNIFICANT WEATHER.
      TMP - AIR TEMPERATURE.    DP   - DEWPOINT TEMPERATURE.
      RH  - RELATIVE HUMIDITY.  PRES - PRESSURE.
      HX  - HEAT INDEX.         WCI  - WIND CHILL INDEX.
$


USA.gov is the U.S. government's official web portal to all federal, state and local government web resources and services.